Weather History for Hazlehurst, GA

Change the Weather History Date:

Thursday, January 31, 2013

  Actual Average Record
Temperature  
Mean Temperature 46 °F -  
Max Temperature 77 °F 51 °F 77 °F (2013)
Min Temperature 38 °F 32 °F 34 °F (2014)
Degree Days  
Heating Degree Days 20    
Moisture  
Dew Point 32 °F    
Average Humidity 61    
Maximum Humidity 89    
Minimum Humidity 37    
Precipitation  
Precipitation 0.00 in - - ()
Sea Level Pressure  
Sea Level Pressure 30.09 in    
Wind  
Wind Speed 8 mph (WNW)    
Max Wind Speed 15 mph    
Max Gust Speed 25 mph    
Visibility 10 miles    
Events      
Averages and records for this station are not official NWS values.
T = Trace of Precipitation, MM = Missing Value Source: NWS Daily Summary

Daily Weather History Graph

Daily Weather History Graph

Search for Another Location

Airport:

Trip Planner

Search our weather history database for the weather conditions in past years. The results will help you decide how hot, cold, wet, or windy it might be!

Date:

Astronomy

Jan. 31, 2013 Rise Set
Actual Time 7:24 AM EST 6:04 PM EST
Civil Twilight 6:58 AM EST 6:29 PM EST
Nautical Twilight 6:29 AM EST 6:58 PM EST
Astronomical Twilight 6:00 AM EST 7:27 PM EST
Moon 10:42 PM EST (1/31) 9:43 AM EST (1/31)
Length of Visible Light 11h 30m
Length of Day
10h 39m
Waning Gibbous, 80% of the Moon is Illuminated
Jan 31
Waning Gibbous
Feb 3
Last Quarter
Feb 10
New
Feb 17
First Quarter
Feb 25
Full

Hourly Weather History & Observations

Time (EST) Temp. Windchill Dew Point Humidity Pressure Visibility Wind Dir Wind Speed Gust Speed Precip Events Conditions
12:15 AM 51.8 °F - 48.7 °F 89% 29.85 in 10.0 mi WSW 6.9 mph - N/A   Overcast
12:35 AM 51.8 °F - 48.4 °F 88% 29.85 in 10.0 mi West 8.1 mph - N/A   Overcast
12:55 AM 51.8 °F - 47.5 °F 85% 29.87 in 10.0 mi West 6.9 mph 23.0 mph N/A   Overcast
1:15 AM 51.8 °F - 47.1 °F 84% 29.88 in 10.0 mi West 9.2 mph 18.4 mph N/A   Overcast
1:35 AM 51.6 °F - 46.4 °F 82% 29.89 in 10.0 mi West 11.5 mph 19.6 mph N/A   Overcast
1:55 AM 50.9 °F - 44.1 °F 77% 29.91 in 10.0 mi WNW 12.7 mph 25.3 mph N/A   Overcast
2:15 AM 49.8 °F - 40.3 °F 70% 29.91 in 10.0 mi WNW 10.4 mph 24.2 mph N/A   Scattered Clouds
2:35 AM 48.6 °F - 38.5 °F 68% 29.93 in 10.0 mi West 15.0 mph 25.3 mph N/A   Scattered Clouds
2:55 AM 47.7 °F - 38.3 °F 70% 29.94 in 10.0 mi West 10.4 mph 19.6 mph N/A   Clear
3:15 AM 47.3 °F - 38.3 °F 71% 29.95 in 10.0 mi WNW 8.1 mph 17.3 mph N/A   Mostly Cloudy
3:55 AM 45.1 °F 40.3 °F 34.7 °F 67% 29.97 in 10.0 mi WNW 9.2 mph 21.9 mph N/A   Scattered Clouds
4:15 AM 44.4 °F 39.5 °F 33.4 °F 65% 29.98 in 10.0 mi WNW 9.2 mph 19.6 mph N/A   Clear
4:35 AM 43.7 °F 37.3 °F 32.0 °F 63% 29.98 in 10.0 mi West 12.7 mph 23.0 mph N/A   Clear
4:55 AM 43.3 °F 38.6 °F 31.3 °F 62% 30.00 in 10.0 mi WNW 8.1 mph 20.7 mph N/A   Clear
5:15 AM 42.8 °F 37.5 °F 30.9 °F 63% 30.00 in 10.0 mi WNW 9.2 mph 17.3 mph N/A   Clear
5:35 AM 42.3 °F 36.8 °F 31.1 °F 65% 30.01 in 10.0 mi WNW 9.2 mph 21.9 mph N/A   Clear
5:55 AM 41.9 °F 37.5 °F 31.6 °F 67% 30.02 in 10.0 mi WNW 6.9 mph 20.7 mph N/A   Clear
6:15 AM 41.5 °F 37.1 °F 32.0 °F 69% 30.02 in 10.0 mi West 6.9 mph 17.3 mph N/A   Clear
6:35 AM 41.2 °F 36.6 °F 32.0 °F 70% 30.04 in 10.0 mi WNW 6.9 mph - N/A   Clear
6:55 AM 40.6 °F 36.7 °F 32.0 °F 71% 30.04 in 10.0 mi WNW 5.8 mph - N/A   Clear
7:15 AM 39.9 °F 32.9 °F 32.0 °F 73% 30.06 in 10.0 mi West 11.5 mph 16.1 mph N/A   Clear
7:35 AM 39.9 °F 32.9 °F 31.6 °F 72% 30.06 in 10.0 mi NW 11.5 mph 18.4 mph N/A   Clear
7:55 AM 40.1 °F 34.1 °F 30.6 °F 69% 30.07 in 10.0 mi NW 9.2 mph 18.4 mph N/A   Clear
8:15 AM 40.5 °F 34.6 °F 30.7 °F 68% 30.08 in 10.0 mi NW 9.2 mph - N/A   Clear
8:35 AM 41.2 °F 37.3 °F 30.7 °F 66% 30.09 in 10.0 mi WNW 5.8 mph - N/A   Clear
8:55 AM 41.5 °F 37.8 °F 30.7 °F 65% 30.10 in 10.0 mi NW 5.8 mph - N/A   Clear
9:15 AM 42.6 °F 37.8 °F 31.3 °F 64% 30.11 in 10.0 mi WNW 8.1 mph 16.1 mph N/A   Clear
9:35 AM 43.2 °F 37.0 °F 30.4 °F 61% 30.12 in 10.0 mi NW 11.5 mph 17.3 mph N/A   Clear
9:55 AM 43.3 °F 37.7 °F 29.8 °F 59% 30.12 in 10.0 mi WNW 10.4 mph 17.3 mph N/A   Clear
10:15 AM 44.1 °F 39.0 °F 29.8 °F 57% 30.13 in 10.0 mi NW 9.2 mph - N/A   Clear
10:35 AM 45.1 °F 39.9 °F 29.8 °F 55% 30.14 in 10.0 mi WNW 10.4 mph 16.1 mph N/A   Clear
10:55 AM 46.4 °F 42.9 °F 30.4 °F 54% 30.14 in 10.0 mi NW 6.9 mph - N/A   Clear
11:15 AM 47.1 °F - 30.0 °F 51% 30.14 in 10.0 mi WNW 9.2 mph 18.4 mph N/A   Clear
11:35 AM 47.7 °F - 29.8 °F 50% 30.14 in 10.0 mi WNW 5.8 mph 16.1 mph N/A   Clear
11:55 AM 48.2 °F - 29.3 °F 48% 30.14 in 10.0 mi NW 8.1 mph 20.7 mph N/A   Clear
12:15 PM 48.9 °F - 29.5 °F 47% 30.14 in 10.0 mi WNW 8.1 mph 17.3 mph N/A   Clear
12:35 PM 49.8 °F - 29.1 °F 45% 30.14 in 10.0 mi WNW 10.4 mph 19.6 mph N/A   Clear
12:55 PM 50.7 °F - 28.9 °F 43% 30.14 in 10.0 mi West 12.7 mph 16.1 mph N/A   Clear
1:15 PM 51.3 °F - 28.2 °F 41% 30.13 in 10.0 mi West 12.7 mph 20.7 mph N/A   Clear
1:35 PM 51.6 °F - 26.8 °F 38% 30.12 in 10.0 mi WNW 10.4 mph 17.3 mph N/A   Clear
1:55 PM 52.5 °F - 28.8 °F 40% 30.12 in 10.0 mi WNW 4.6 mph 17.3 mph N/A   Clear
2:15 PM 52.5 °F - 28.8 °F 40% 30.12 in 10.0 mi West 6.9 mph 20.7 mph N/A   Clear
2:35 PM 52.7 °F - 27.9 °F 38% 30.12 in 10.0 mi West 5.8 mph 21.9 mph N/A   Clear
2:55 PM 53.2 °F - 28.0 °F 38% 30.13 in 10.0 mi NW 6.9 mph 20.7 mph N/A   Clear
3:15 PM 53.2 °F - 28.0 °F 38% 30.13 in 10.0 mi WNW 10.4 mph 20.7 mph N/A   Clear
3:35 PM 53.6 °F - 28.6 °F 38% 30.12 in 10.0 mi NW 6.9 mph - N/A   Clear
3:55 PM 53.8 °F - 28.4 °F 38% 30.13 in 10.0 mi WNW 9.2 mph 16.1 mph N/A   Clear
4:15 PM 53.6 °F - 27.5 °F 37% 30.13 in 10.0 mi NW 10.4 mph 16.1 mph N/A   Clear
4:35 PM 53.4 °F - 27.7 °F 37% 30.13 in 10.0 mi NW 10.4 mph 16.1 mph N/A   Clear
4:55 PM 52.9 °F - 27.7 °F 38% 30.13 in 10.0 mi West 5.8 mph - N/A   Clear
5:15 PM 52.2 °F - 27.5 °F 39% 30.14 in 10.0 mi WNW 5.8 mph 17.3 mph N/A   Clear
5:35 PM 51.4 °F - 27.0 °F 39% 30.14 in 10.0 mi Calm Calm - N/A   Clear
5:55 PM 49.8 °F - 28.8 °F 44% 30.15 in 10.0 mi Calm Calm - N/A   Clear
6:15 PM 47.8 °F - 29.8 °F 50% 30.15 in 10.0 mi Calm Calm - N/A   Clear
6:35 PM 45.5 °F - 31.1 °F 57% 30.15 in 10.0 mi Calm Calm - N/A   Clear
6:55 PM 43.5 °F - 32.2 °F 64% 30.16 in 10.0 mi Calm Calm - N/A   Clear
7:15 PM 41.2 °F - 32.7 °F 72% 30.17 in 10.0 mi Calm Calm - N/A   Clear
7:35 PM 40.8 °F - 32.2 °F 71% 30.18 in 10.0 mi Calm Calm - N/A   Clear
7:55 PM 40.1 °F - 32.0 °F 73% 30.19 in 10.0 mi Calm Calm - N/A   Clear
8:15 PM 38.7 °F - 32.4 °F 78% 30.19 in 10.0 mi Calm Calm - N/A   Clear
8:35 PM 39.4 °F - 32.0 °F 75% 30.20 in 10.0 mi Calm Calm - N/A   Clear
9:15 PM 38.8 °F 36.5 °F 32.7 °F 79% 30.21 in 10.0 mi WSW 3.5 mph - N/A   Clear
9:35 PM 39.4 °F - 32.9 °F 78% 30.22 in 10.0 mi Calm Calm - N/A   Clear
9:55 PM 40.3 °F - 32.2 °F 73% 30.23 in 10.0 mi Calm Calm - N/A   Clear
10:15 PM 39.2 °F 37.0 °F 31.8 °F 75% 30.23 in 10.0 mi WSW 3.5 mph - N/A   Clear
10:35 PM 39.6 °F 37.4 °F 31.8 °F 74% 30.23 in 10.0 mi SW 3.5 mph - N/A   Clear
11:15 PM 39.9 °F 36.7 °F 31.5 °F 72% 30.23 in 10.0 mi WSW 4.6 mph - N/A   Clear
11:35 PM 39.7 °F 36.5 °F 31.3 °F 72% 30.23 in 10.0 mi WSW 4.6 mph - N/A   Clear
11:55 PM 39.9 °F 37.8 °F 31.1 °F 71% 30.22 in 10.0 mi WSW 3.5 mph - N/A   Clear